[[{"header":{"parameterUnit":"m.s-1","parameterCategory":1,"la1":30.2991,"la2":30.254,"lo1":-89.0895,"lo2":-89.0444,"dy":0.0017,"dx":0.0017,"nx":28,"ny":28,"refTime":"2025-09-14T21:00:00:Z","depth":0,"parameterNumber":2,"parameterNumberName":"U-component_of_WINDS"},"data":[0,0,0,0,0,0,0,0,0,0,0,0,0,0,0,0,0,0,0,0,0,0,0,0,0,0,0,0,0,0,0,0,0,0,0,0,0,0,0,0,0,0,0,0,0,0,0,0,0,0,0,0,0,0,0,0,0,0,-0.0902,-0.0901,0,-0.0803,-0.0802,-0.0801,-0.0746,-0.0746,-0.0746,-0.0746,-0.0641,-0.0638,-0.0635,0,0,0,0,0,0,0,0,0,0,0,0,0,-0.1042,-0.1039,-0.0902,-0.0901,-0.09,-0.0803,-0.0802,-0.08,-0.0746,-0.0746,-0.0746,-0.0746,-0.0642,-0.0638,-0.0635,0,0,0,0,0,0,0,0,0,0,0,0,0,-0.0966,-0.1039,-0.0902,-0.0861,-0.0856,-0.0803,-0.0802,-0.08,-0.0746,-0.0746,-0.0746,-0.0746,-0.0643,-0.0639,-0.0635,-0.0614,0,0,-0.0623,-0.0621,0,0,0,0,0,0,0,0,-0.097,-0.0961,-0.0868,-0.0864,-0.0858,-0.0787,-0.0812,-0.0738,-0.0746,-0.0788,-0.0746,-0.0745,-0.0689,-0.0681,-0.0663,-0.0609,-0.0605,-0.0622,-0.062,-0.0618,-0.0617,0,0,0,0,0,0,0,-0.0975,-0.0964,-0.0863,-0.0867,-0.0861,-0.0847,-0.0836,-0.0798,-0.0741,-0.0784,-0.078,-0.0769,-0.0686,-0.0667,-0.066,-0.0603,-0.0622,-0.0619,-0.0616,-0.0615,-0.0529,-0.0529,0,0,0,0,0,0,-0.0988,-0.0969,-0.0866,-0.086,-0.0915,-0.0844,-0.0832,-0.081,-0.0741,-0.073,-0.077,-0.0767,-0.0674,-0.0665,-0.0656,-0.0629,-0.0618,-0.0614,-0.0612,-0.0529,-0.0529,-0.0529,0,0,0,0,0,0,-0.0991,-0.0979,-0.087,-0.0913,-0.0898,-0.0842,-0.0818,-0.0808,-0.0789,-0.073,-0.0719,-0.0761,-0.0673,-0.0662,-0.0626,-0.0624,-0.0612,-0.0609,-0.0529,-0.0529,-0.0529,-0.0573,0,0,0,0,0,0,-0.0995,-0.098,-0.0973,-0.0914,-0.0896,-0.0842,-0.0818,-0.0806,-0.0782,-0.0778,-0.0719,-0.0709,-0.0672,-0.0632,-0.0622,-0.0619,-0.0606,-0.0528,-0.0529,-0.0529,-0.0571,-0.0575,-0.0577,0,0,0,0,0,-0.1,-0.0988,-0.0973,-0.096,-0.0886,-0.0842,-0.0832,-0.0791,-0.0782,-0.0774,-0.0736,-0.071,-0.0626,-0.0629,-0.0617,-0.0612,-0.0528,-0.0529,-0.0529,-0.057,-0.0574,-0.0577,0,0,0,0,0,0,-0.1047,-0.0979,-0.0962,-0.093,-0.0892,-0.0833,-0.082,-0.0797,-0.076,-0.0757,-0.0708,-0.0695,-0.0663,-0.0634,-0.0638,-0.0589,-0.0574,-0.0572,-0.061,-0.0613,-0.0616,-0.0624,-0.0602,0,0,0,0,0,-0.1054,-0.1025,-0.0967,-0.0944,-0.0927,-0.0877,-0.0856,-0.0829,-0.0787,-0.0771,-0.073,-0.069,-0.0655,-0.0632,-0.0596,-0.0567,-0.0553,-0.0558,-0.0561,-0.0564,-0.0563,-0.0546,-0.0548,-0.053,-0.053,-0.053,0,0,-0.1067,-0.1026,-0.1011,-0.0953,-0.092,-0.0891,-0.0864,-0.0833,-0.0811,-0.0765,-0.073,-0.0699,-0.065,-0.0618,-0.0602,-0.0593,-0.0565,-0.0564,-0.0567,-0.0564,-0.0546,-0.0548,-0.055,-0.053,-0.053,-0.053,0,0,-0.1076,-0.1043,-0.1021,-0.0989,-0.0941,-0.0908,-0.0903,-0.0848,-0.0826,-0.0789,-0.0755,-0.0727,-0.0667,-0.0634,-0.061,-0.0609,-0.0584,-0.0598,-0.0614,-0.0598,-0.06,-0.0601,-0.0601,-0.0602,-0.0597,-0.0597,-0.0597,0,-0.1098,-0.1054,-0.1012,-0.0984,-0.096,-0.0919,-0.0897,-0.0868,-0.081,-0.0794,-0.0785,-0.0709,-0.0674,-0.0634,-0.0634,-0.0615,-0.0608,-0.0605,-0.0603,-0.0604,-0.0604,-0.0604,-0.0604,-0.0599,-0.0599,-0.0599,-0.0599,0,-0.1084,-0.1053,-0.1041,-0.0988,-0.0962,-0.0937,-0.0892,-0.0871,-0.0846,-0.0814,-0.0777,-0.0734,-0.0689,-0.0677,-0.0652,-0.0634,-0.063,-0.0613,-0.0597,-0.0608,-0.0607,-0.0607,-0.0602,-0.0602,-0.0601,-0.06,0,0,-0.1119,-0.1044,-0.1041,-0.1017,-0.0961,-0.0936,-0.0909,-0.0867,-0.085,-0.0812,-0.0788,-0.0739,-0.0723,-0.0695,-0.0666,-0.0652,-0.0655,-0.0636,-0.0635,-0.0642,-0.0634,-0.0648,-0.0648,-0.0639,-0.0638,-0.0638,-0.0638,0,-0.112,-0.1072,-0.1034,-0.0999,-0.0971,-0.0932,-0.0909,-0.0872,-0.0842,-0.0813,-0.0779,-0.0746,-0.0727,-0.071,-0.0695,-0.0658,-0.0653,-0.0658,-0.0616,-0.0615,-0.063,-0.0648,-0.0662,-0.0664,-0.0638,-0.0637,-0.0637,0,-0.1116,-0.1081,-0.1044,-0.0992,-0.0979,-0.0959,-0.0918,-0.089,-0.0848,-0.0827,-0.0797,-0.0767,-0.0737,-0.0724,-0.0682,-0.0686,-0.0667,-0.0646,-0.0646,-0.064,-0.0627,-0.0643,-0.0663,-0.0664,-0.0636,-0.0636,-0.0636,0,-0.1146,-0.1089,-0.106,-0.1041,-0.098,-0.0967,-0.094,-0.0898,-0.0875,-0.0839,-0.0824,-0.0784,-0.0762,-0.0732,-0.0692,-0.0686,-0.0654,-0.0637,-0.0636,-0.0637,-0.0631,-0.0632,-0.0649,-0.0618,-0.0618,-0.0618,-0.0618,0,-0.1152,-0.1131,-0.1073,-0.1055,-0.1031,-0.0988,-0.0964,-0.0935,-0.0898,-0.0873,-0.0836,-0.0814,-0.0762,-0.0734,-0.0702,-0.0673,-0.0663,-0.0645,-0.0637,-0.0648,-0.0651,-0.0635,-0.0634,-0.0618,-0.0618,-0.0618,-0.0618,0,-0.1182,-0.1142,-0.1108,-0.1054,-0.104,-0.1024,-0.0977,-0.0958,-0.0927,-0.0896,-0.0886,-0.0837,-0.0801,-0.0758,-0.0708,-0.0687,-0.0661,-0.0648,-0.0676,-0.0671,-0.0672,-0.0673,-0.068,-0.0679,-0.0649,-0.0649,-0.0649,0,-0.1189,-0.1172,-0.1117,-0.1098,-0.1074,-0.1044,-0.1021,-0.0978,-0.0956,-0.0907,-0.0894,-0.0856,-0.0824,-0.0769,-0.0727,-0.0689,-0.0676,-0.0681,-0.067,-0.0683,-0.0677,-0.0679,-0.0677,-0.0684,-0.0685,-0.0685,-0.0686,0,-0.1205,-0.1187,-0.1156,-0.1118,-0.1093,-0.1061,-0.1027,-0.1014,-0.0964,-0.0941,-0.0905,-0.088,-0.083,-0.0793,-0.075,-0.0722,-0.0696,-0.069,-0.0687,-0.0699,-0.0716,-0.0708,-0.0684,-0.069,-0.0689,-0.0689,-0.0689,-0.0689,-0.1224,-0.1208,-0.1167,-0.1134,-0.1104,-0.1074,-0.1054,-0.1021,-0.0991,-0.0948,-0.0924,-0.0889,-0.0847,-0.0787,-0.0761,-0.0732,-0.0723,-0.0719,-0.0719,-0.0719,-0.0723,-0.0721,-0.0724,-0.0724,-0.0724,-0.0724,-0.0724,0,-0.1239,-0.1211,-0.1182,-0.1137,-0.1111,-0.109,-0.1052,-0.1031,-0.1001,-0.0965,-0.0935,-0.0894,-0.0858,-0.0815,-0.0776,-0.0762,-0.0749,-0.0753,-0.0754,-0.0748,-0.0733,-0.0739,-0.0765,-0.0765,-0.0765,-0.0765,-0.0765,-0.0765,-0.1244,-0.1216,-0.1193,-0.115,-0.1122,-0.1088,-0.1069,-0.1041,-0.1012,-0.0969,-0.0939,-0.0912,-0.0873,-0.0832,-0.0798,-0.0786,-0.0774,-0.0782,-0.0767,-0.0753,-0.0749,-0.0746,-0.0752,-0.078,-0.078,-0.0785,-0.0785,-0.0785]},{"header":{"parameterUnit":"m.s-1","parameterCategory":1,"la1":30.2991,"la2":30.254,"lo1":-89.0895,"lo2":-89.0444,"dy":0.0017,"dx":0.0017,"nx":28,"ny":28,"refTime":"2025-09-14T21:00:00:Z","depth":0,"parameterNumber":3,"parameterNumberName":"V-component_of_WINDS"},"data":[0,0,0,0,0,0,0,0,0,0,0,0,0,0,0,0,0,0,0,0,0,0,0,0,0,0,0,0,0,0,0,0,0,0,0,0,0,0,0,0,0,0,0,0,0,0,0,0,0,0,0,0,0,0,0,0,0,0,3.1137,3.1137,0,3.1097,3.1097,3.1096,3.1116,3.1117,3.1119,3.112,3.1073,3.1071,3.1069,0,0,0,0,0,0,0,0,0,0,0,0,0,3.1226,3.1224,3.1137,3.1137,3.1136,3.1097,3.1097,3.1096,3.1116,3.1117,3.1119,3.112,3.1074,3.1071,3.1068,0,0,0,0,0,0,0,0,0,0,0,0,0,3.1186,3.1223,3.1137,3.1142,3.1142,3.1097,3.1097,3.1096,3.1116,3.1118,3.1119,3.1121,3.1075,3.1071,3.1068,3.1015,0,0,3.1058,3.1056,0,0,0,0,0,0,0,0,3.1189,3.1183,3.1141,3.1141,3.1141,3.1114,3.1111,3.1069,3.1116,3.1125,3.112,3.1121,3.1085,3.1081,3.1069,3.1013,3.1011,3.1057,3.1055,3.1054,3.1053,0,0,0,0,0,0,0,3.1191,3.1185,3.1121,3.1141,3.1141,3.1144,3.114,3.1103,3.1096,3.1125,3.1126,3.1121,3.1085,3.1073,3.1068,3.101,3.1057,3.1055,3.1052,3.1051,3.0907,3.0905,0,0,0,0,0,0,3.1195,3.1187,3.1122,3.112,3.117,3.1141,3.1137,3.1121,3.1097,3.1095,3.112,3.1123,3.1078,3.1072,3.1067,3.1002,3.1054,3.1051,3.1049,3.0909,3.0906,3.0904,0,0,0,0,0,0,3.1196,3.1189,3.1124,3.1154,3.1146,3.1138,3.1119,3.1119,3.1107,3.1094,3.1092,3.1109,3.1079,3.1072,3.1028,3.1001,3.1049,3.1046,3.0911,3.0908,3.0905,3.0873,0,0,0,0,0,0,3.1199,3.1189,3.117,3.1153,3.1144,3.1087,3.1118,3.1117,3.1102,3.1104,3.1083,3.1081,3.1079,3.1033,3.1025,3.0997,3.1044,3.0913,3.091,3.0906,3.0876,3.0869,3.0863,0,0,0,0,0,3.1202,3.1162,3.1169,3.1161,3.1121,3.1085,3.108,3.1081,3.1099,3.1079,3.1071,3.1081,3.1006,3.1028,3.1019,3.099,3.0915,3.0911,3.0907,3.0879,3.0871,3.0863,0,0,0,0,0,0,3.1173,3.1159,3.1168,3.1121,3.1105,3.1089,3.1064,3.1072,3.1049,3.1052,3.1053,3.1048,3.1002,3.0992,3.1017,3.0937,3.0963,3.0957,3.0945,3.0937,3.0931,3.0933,3.1041,0,0,0,0,0,3.1162,3.1137,3.1125,3.1085,3.1077,3.1072,3.1056,3.1059,3.1041,3.1033,3.1022,3.1002,3.0974,3.0955,3.0929,3.0876,3.087,3.0851,3.0845,3.084,3.0833,3.0803,3.0794,3.0891,3.0891,3.0891,0,0,3.1138,3.1127,3.111,3.1079,3.1066,3.1038,3.1065,3.1034,3.1012,3.1028,3.0986,3.0977,3.0955,3.0906,3.0884,3.0896,3.0806,3.0834,3.083,3.0827,3.0798,3.0788,3.078,3.0888,3.0889,3.0889,0,0,3.1078,3.1068,3.1033,3.1021,3.1002,3.0999,3.0991,3.0974,3.0969,3.0927,3.0938,3.0912,3.0864,3.0847,3.0833,3.0768,3.0776,3.0759,3.0724,3.0695,3.0687,3.068,3.0655,3.0646,3.0754,3.0753,3.0753,0,3.1049,3.1008,3.1014,3.0982,3.0966,3.0982,3.0945,3.0932,3.0905,3.0893,3.0908,3.0848,3.0835,3.0781,3.0765,3.0754,3.0742,3.076,3.0688,3.0681,3.0675,3.065,3.0641,3.0751,3.0752,3.0752,3.0752,0,3.0973,3.0944,3.0918,3.0893,3.0875,3.0841,3.0839,3.0821,3.0825,3.082,3.0776,3.0761,3.0731,3.0719,3.0723,3.0666,3.0674,3.0689,3.0714,3.0663,3.064,3.0631,3.0748,3.0749,3.075,3.075,0,0,3.0892,3.0872,3.0861,3.085,3.0831,3.0808,3.0774,3.0747,3.0729,3.071,3.068,3.064,3.0653,3.0636,3.0638,3.0612,3.0559,3.063,3.0629,3.0615,3.0493,3.0481,3.047,3.0566,3.0564,3.0563,3.0494,0,3.0829,3.0771,3.0775,3.072,3.0692,3.0707,3.0677,3.0661,3.0655,3.063,3.0623,3.0594,3.0615,3.0605,3.058,3.0571,3.0534,3.0576,3.0535,3.0533,3.0537,3.0458,3.0445,3.0381,3.0486,3.0484,3.0483,0,3.0748,3.0728,3.067,3.0655,3.0643,3.0616,3.0591,3.0568,3.0549,3.0547,3.0529,3.0535,3.0498,3.0527,3.0475,3.0504,3.0487,3.048,3.0478,3.0472,3.0503,3.0448,3.0361,3.0351,3.047,3.0471,3.0472,0,3.0692,3.065,3.061,3.06,3.0582,3.0562,3.0553,3.0537,3.052,3.0498,3.0486,3.0459,3.0444,3.0422,3.042,3.0441,3.0367,3.0396,3.0362,3.0362,3.0343,3.0344,3.025,3.0337,3.0337,3.0337,3.0338,0,3.062,3.0583,3.0585,3.056,3.0519,3.0523,3.0482,3.0475,3.046,3.0432,3.0443,3.0417,3.0417,3.0389,3.0387,3.0344,3.0337,3.0333,3.0332,3.033,3.033,3.0317,3.032,3.0335,3.0335,3.0336,3.0336,0,3.0549,3.0549,3.0506,3.0493,3.0489,3.0459,3.0446,3.0421,3.0418,3.0383,3.0375,3.0368,3.0336,3.0333,3.0295,3.0294,3.024,3.0246,3.0247,3.0246,3.0212,3.0214,3.0104,3.0089,3.0188,3.0187,3.0187,0,3.0502,3.0475,3.0459,3.0442,3.0433,3.0405,3.0389,3.0392,3.0373,3.0351,3.0328,3.0298,3.0273,3.0221,3.0212,3.0183,3.0186,3.0149,3.0181,3.018,3.0182,3.0183,3.0179,3.0142,3.0141,3.014,3.014,0,3.0418,3.0419,3.0396,3.0372,3.0352,3.0333,3.0315,3.03,3.0301,3.0279,3.0248,3.0229,3.0191,3.016,3.0132,3.012,3.0129,3.013,3.012,3.0117,3.0117,3.0114,3.0227,3.0132,3.0133,3.0133,3.0134,3.0134,3.0356,3.0332,3.0317,3.029,3.0277,3.026,3.0236,3.023,3.0204,3.0175,3.0178,3.0143,3.0124,3.0087,3.0074,3.0045,3.0057,3.0043,3.0039,3.0035,3.003,3.0125,3.004,3.004,3.004,3.0041,3.0041,0,3.027,3.0262,3.0237,3.0212,3.019,3.0204,3.0184,3.0164,3.0134,3.0117,3.0093,3.0056,3.0026,3.0015,2.9985,2.9963,2.9966,2.9955,2.9955,2.9952,3.0023,3.0033,2.9953,2.9953,2.9953,2.9953,2.9953,2.9953,3.0223,3.0182,3.0181,3.0134,3.0125,3.0092,3.0079,3.0063,3.0049,3.0008,2.9984,2.9978,2.9962,2.9931,2.9904,2.9901,2.9888,2.9874,2.9873,2.9939,2.9947,2.9956,2.9965,2.9872,2.9872,2.9805,2.9804,2.9804]}]]